Погода в Гуастатойе

Гватемала     14°51′41″N   90°02′38″W
темп.,
°C
ветер,
м/с
пор.,
м/с
влажн.,
%
обл.,
%
осадки,
мм/ч
давл.,
гПа
погр.,
м
6 марта, сб
сб600:00+15зюз11910 0.0 101423
03:00+14зюз11920 0.0 101323
06:00+13зюз12920 0.0 101423
09:00+22сз22560 0.0 1016479
12:00+29ссв22340 0.0 10131284
15:00+29всв33310 0.0 10101747
18:00+22св23540 0.0 101293
21:00+16св11760 0.0 101627
7 марта, вс
вс700:00+15зсз11840 0.0 101629
03:00+14сз11910 0.0 101632
06:00+13зсз11924 0.0 101731
09:00+19ссз127274 0.0 1019457
12:00+24ссз235272 0.1 10161216
15:00+25ссв2448100 0.0 10141598
18:00+21св246171 0.0 1016131
21:00+16св12940 0.0 101952
8 марта, пн
пн800:00+15ссз129812 0.1 1019116
03:00+15сз129386 0.0 1018173
06:00+15ссз119483 0.1 101999
09:00+20с236962 0.2 1021761
12:00+24ссв344663 0.3 10191520
15:00+24св454978 0.0 10171479
18:00+19св246864 0.0 1018276
21:00+15св1292100 0.0 102159
9 марта, вт
вт900:00+14сз1195100 0.0 102056
03:00+14ссз129391 0.0 1019131
06:00+14ссз119291 0.0 1020111
09:00+19ссз237176 0.0 1021622
12:00+22с245288 0.1 10181297
15:00+26ссв444046 0.0 10151802
18:00+20св246141 0.0 1017132
21:00+15св12969 0.0 102061
10 марта, ср
ср1000:00+15ссз129538 0.0 1019132
03:00+14сз239498 0.0 1017168
06:00+13зсз129792 0.0 101882
09:00+19сз236794 0.0 1019578
12:00+24ссв344894 0.0 10161309
15:00+24св3451100 0.0 10131279
18:00+19всв2473100 0.0 1015179
21:00+15св129670 0.0 101848